| time (UTC) | temp C | wind direction | speed KPH | gust KPH | rain 1hr cm | rain 24hr cm | rain mn cm | humidity % | barometer mb |
| 20260901212004 | 27 | 360 | 4.8 | 12.9 | 0.00 | 0.00 | 0.00 | 75 | 1013.5 |
| 20260901211524 | 27 | 242 | 3.2 | 12.9 | 0.00 | 0.00 | 0.00 | 76 | 1013.4 |
| 20260901211006 | 27 | 243 | 4.8 | 9.7 | 0.00 | 0.00 | 0.00 | 76 | 1013.5 |
| 20260901210523 | 27 | 360 | 6.4 | 9.7 | 0.00 | 0.00 | 0.00 | 75 | 1013.4 |
| 20260901210028 | 27 | 360 | 3.2 | 12.9 | 0.00 | 0.00 | 0.00 | 75 | 1013.5 |
| 20260901205551 | 27 | 248 | 6.4 | 14.5 | 0.00 | 0.00 | 0.00 | 74 | 1013.4 |
| 20260901205057 | 27 | 360 | 6.4 | 14.5 | 0.00 | 0.00 | 0.00 | 74 | 1013.4 |
| 20260901204508 | 27 | 360 | 4.8 | 12.9 | 0.00 | 0.00 | 0.00 | 75 | 1013.3 |
| 20260901204047 | 27 | 360 | 6.4 | 14.5 | 0.00 | 0.00 | 0.00 | 75 | 1013.3 |
| 20260901203553 | 27 | 360 | 8.0 | 14.5 | 0.00 | 0.00 | 0.00 | 75 | 1013.3 |
| 20260901203103 | 27 | 231 | 6.4 | 11.3 | 0.00 | 0.00 | 0.00 | 75 | 1013.3 |
| 20260901202539 | 27 | 234 | 3.2 | 16.1 | 0.00 | 0.00 | 0.00 | 77 | 1013.3 |
| 20260901202042 | 27 | 244 | 6.4 | 16.1 | 0.00 | 0.00 | 0.00 | 77 | 1013.4 |
| 20260901201548 | 27 | 257 | 6.4 | 17.7 | 0.00 | 0.00 | 0.00 | 78 | 1013.4 |
| 20260901201051 | 26 | 280 | 6.4 | 17.7 | 0.00 | 0.00 | 0.00 | 78 | 1013.4 |
| 20260901200559 | 26 | 360 | 8.0 | 16.1 | 0.00 | 0.00 | 0.00 | 77 | 1013.6 |
| 20260901200503 | 27 | 234 | 8.0 | 16.1 | 0.00 | 0.00 | 0.00 | 77 | 1013.6 |
| 20260901200005 | 27 | 244 | 4.8 | 17.7 | 0.00 | 0.00 | 0.00 | 79 | 1013.7 |
| 20260901195519 | 26 | 360 | 9.7 | 19.3 | 0.00 | 0.00 | 0.00 | 77 | 1013.7 |
| 20260901195025 | 26 | 360 | 8.0 | 19.3 | 0.00 | 0.00 | 0.00 | 77 | 1013.6 |
| 20260901194535 | 26 | 279 | 9.7 | 17.7 | 0.00 | 0.00 | 0.00 | 78 | 1013.4 |
| 20260901194045 | 26 | 232 | 8.0 | 17.7 | 0.00 | 0.00 | 0.00 | 78 | 1013.4 |
| 20260901193551 | 26 | 360 | 9.7 | 20.9 | 0.00 | 0.00 | 0.00 | 78 | 1013.5 |
| 20260901193055 | 26 | 264 | 9.7 | 20.9 | 0.00 | 0.00 | 0.00 | 79 | 1013.5 |
| 20260901192553 | 26 | 360 | 9.7 | 20.9 | 0.00 | 0.00 | 0.00 | 79 | 1013.5 |
| 20260901192057 | 26 | 360 | 11.3 | 22.5 | 0.00 | 0.00 | 0.00 | 79 | 1013.6 |
| 20260901191545 | 26 | 360 | 9.7 | 22.5 | 0.00 | 0.00 | 0.00 | 80 | 1013.6 |
| 20260901191039 | 26 | 360 | 8.0 | 27.4 | 0.00 | 0.00 | 0.00 | 81 | 1013.7 |
| 20260901190547 | 26 | 360 | 11.3 | 22.5 | 0.00 | 0.00 | 0.00 | 80 | 1013.7 |
| 20260901190051 | 26 | 360 | 12.9 | 25.7 | 0.00 | 0.00 | 0.00 | 80 | 1013.6 |
| 20260901185559 | 26 | 360 | 11.3 | 29.0 | 0.00 | 0.00 | 0.00 | 81 | 1013.6 |
| 20260901185038 | 26 | 360 | 11.3 | 24.1 | 0.00 | 0.00 | 0.00 | 81 | 1013.6 |
| 20260901184555 | 26 | 360 | 11.3 | 24.1 | 0.00 | 0.00 | 0.00 | 80 | 1013.6 |
| 20260901184040 | 26 | 360 | 12.9 | 24.1 | 0.00 | 0.00 | 0.00 | 80 | 1013.6 |
| 20260901183523 | 27 | 360 | 12.9 | 24.1 | 0.00 | 0.00 | 0.00 | 79 | 1013.5 |
| 20260901183030 | 27 | 262 | 12.9 | 22.5 | 0.00 | 0.00 | 0.00 | 80 | 1013.5 |
| 20260901182517 | 27 | 360 | 11.3 | 22.5 | 0.00 | 0.00 | 0.00 | 80 | 1013.4 |
| 20260901182026 | 27 | 360 | 11.3 | 24.1 | 0.00 | 0.00 | 0.00 | 80 | 1013.4 |
| 20260901181524 | 27 | 360 | 8.0 | 19.3 | 0.00 | 0.00 | 0.00 | 80 | 1013.3 |
| 20260901181029 | 27 | 360 | 9.7 | 19.3 | 0.00 | 0.00 | 0.00 | 80 | 1013.2 |
| 20260901180537 | 27 | 360 | 9.7 | 22.5 | 0.00 | 0.00 | 0.00 | 81 | 1013.2 |
| 20260901175545 | 27 | 360 | 11.3 | 22.5 | 0.00 | 0.00 | 0.00 | 81 | 1013.4 |
| 20260901175045 | 27 | 360 | 12.9 | 20.9 | 0.00 | 0.00 | 0.00 | 81 | 1013.3 |
| 20260901174555 | 26 | 268 | 9.7 | 19.3 | 0.00 | 0.00 | 0.00 | 81 | 1013.3 |
| 20260901174002 | 27 | 242 | 11.3 | 19.3 | 0.00 | 0.00 | 0.00 | 80 | 1013.4 |
| 20260901173509 | 26 | 251 | 11.3 | 20.9 | 0.00 | 0.00 | 0.00 | 81 | 1013.4 |
| 20260901173007 | 26 | 360 | 12.9 | 20.9 | 0.00 | 0.00 | 0.00 | 81 | 1013.4 |
| 20260901172517 | 26 | 360 | 11.3 | 24.1 | 0.00 | 0.00 | 0.00 | 82 | 1013.5 |
| 20260901172059 | 26 | 293 | 11.3 | 24.1 | 0.00 | 0.00 | 0.00 | 82 | 1013.6 |
| 20260901171510 | 26 | 360 | 12.9 | 29.0 | 0.00 | 0.00 | 0.00 | 82 | 1013.6 |
| 20260901171007 | 26 | 236 | 16.1 | 27.4 | 0.00 | 0.00 | 0.00 | 82 | 1013.6 |
| 20260901170527 | 26 | 360 | 12.9 | 25.7 | 0.00 | 0.00 | 0.00 | 82 | 1013.6 |
| 20260901170029 | 26 | 276 | 8.0 | 20.9 | 0.00 | 0.00 | 0.00 | 82 | 1013.5 |
| 20260901165529 | 26 | 360 | 12.9 | 24.1 | 0.00 | 0.00 | 0.00 | 82 | 1013.5 |
| 20260901165039 | 26 | 360 | 11.3 | 24.1 | 0.00 | 0.00 | 0.00 | 83 | 1013.5 |
| 20260901164539 | 26 | 360 | 11.3 | 25.7 | 0.00 | 0.00 | 0.00 | 83 | 1013.6 |
| 20260901164043 | 26 | 360 | 14.5 | 27.4 | 0.00 | 0.00 | 0.00 | 82 | 1013.6 |
| 20260901163525 | 26 | 360 | 14.5 | 27.4 | 0.00 | 0.00 | 0.00 | 83 | 1013.7 |
| 20260901163037 | 26 | 360 | 11.3 | 24.1 | 0.00 | 0.00 | 0.00 | 82 | 1013.7 |
| 20260901162543 | 26 | 360 | 11.3 | 25.7 | 0.00 | 0.00 | 0.00 | 83 | 1013.6 |
| 20260901162048 | 26 | 360 | 12.9 | 24.1 | 0.00 | 0.00 | 0.00 | 82 | 1013.6 |
| 20260901161559 | 26 | 268 | 12.9 | 24.1 | 0.00 | 0.00 | 0.00 | 82 | 1013.5 |
| 20260901161501 | 26 | 360 | 9.7 | 24.1 | 0.00 | 0.00 | 0.00 | 82 | 1013.5 |
| 20260901161009 | 26 | 360 | 14.5 | 24.1 | 0.00 | 0.00 | 0.00 | 82 | 1013.5 |
| 20260901160516 | 26 | 360 | 11.3 | 24.1 | 0.00 | 0.00 | 0.00 | 82 | 1013.5 |
| 20260901160034 | 26 | 274 | 9.7 | 22.5 | 0.00 | 0.00 | 0.00 | 82 | 1013.4 |
| 20260901155531 | 26 | 360 | 11.3 | 22.5 | 0.00 | 0.00 | 0.00 | 82 | 1013.4 |
| 20260901155025 | 26 | 360 | 12.9 | 22.5 | 0.00 | 0.00 | 0.00 | 82 | 1013.4 |
| 20260901154530 | 26 | 360 | 11.3 | 20.9 | 0.00 | 0.00 | 0.00 | 82 | 1013.2 |
| 20260901154033 | 26 | 360 | 11.3 | 20.9 | 0.00 | 0.00 | 0.00 | 82 | 1013.3 |
| 20260901153543 | 26 | 360 | 9.7 | 20.9 | 0.00 | 0.00 | 0.00 | 82 | 1013.4 |
| 20260901153048 | 26 | 360 | 11.3 | 20.9 | 0.00 | 0.00 | 0.00 | 81 | 1013.4 |
| 20260901152530 | 26 | 276 | 9.7 | 20.9 | 0.00 | 0.00 | 0.00 | 81 | 1013.4 |
| 20260901152013 | 26 | 360 | 9.7 | 19.3 | 0.00 | 0.00 | 0.00 | 80 | 1013.5 |
| 20260901151529 | 26 | 360 | 11.3 | 17.7 | 0.00 | 0.00 | 0.00 | 81 | 1013.4 |
| 20260901151051 | 26 | 242 | 8.0 | 20.9 | 0.00 | 0.00 | 0.00 | 81 | 1013.3 |
| 20260901150544 | 26 | 360 | 9.7 | 20.9 | 0.00 | 0.00 | 0.00 | 81 | 1013.3 |
| 20260901150051 | 26 | 360 | 9.7 | 20.9 | 0.00 | 0.00 | 0.00 | 82 | 1013.4 |
| 20260901145559 | 26 | 360 | 9.7 | 20.9 | 0.00 | 0.00 | 0.00 | 82 | 1013.4 |
| 20260901145501 | 26 | 360 | 11.3 | 20.9 | 0.00 | 0.00 | 0.00 | 82 | 1013.3 |
| 20260901145102 | 26 | 251 | 9.7 | 20.9 | 0.00 | 0.00 | 0.00 | 81 | 1013.3 |
| 20260901144546 | 26 | 360 | 9.7 | 20.9 | 0.00 | 0.00 | 0.00 | 81 | 1013.3 |
| 20260901144048 | 26 | 280 | 11.3 | 20.9 | 0.00 | 0.00 | 0.00 | 81 | 1013.3 |
| 20260901143554 | 26 | 247 | 6.4 | 24.1 | 0.00 | 0.00 | 0.00 | 82 | 1013.3 |
| 20260901143058 | 26 | 233 | 9.7 | 25.7 | 0.00 | 0.00 | 0.00 | 81 | 1013.3 |
| 20260901142541 | 26 | 360 | 11.3 | 25.7 | 0.00 | 0.00 | 0.00 | 82 | 1013.3 |
| 20260901142032 | 25 | 203 | 8.0 | 19.3 | 0.00 | 0.00 | 0.00 | 82 | 1013.4 |
| 20260901141523 | 25 | 360 | 6.4 | 17.7 | 0.00 | 0.00 | 0.00 | 83 | 1013.4 |
| 20260901141023 | 25 | 360 | 6.4 | 19.3 | 0.00 | 0.00 | 0.00 | 83 | 1013.6 |
| 20260901140524 | 25 | 360 | 8.0 | 19.3 | 0.00 | 0.00 | 0.00 | 82 | 1013.7 |
| 20260901140017 | 25 | 235 | 9.7 | 19.3 | 0.00 | 0.00 | 0.00 | 82 | 1013.7 |
| 20260901135525 | 25 | 360 | 9.7 | 19.3 | 0.00 | 0.00 | 0.00 | 82 | 1013.8 |
| 20260901135037 | 25 | 259 | 8.0 | 22.5 | 0.00 | 0.00 | 0.00 | 82 | 1013.7 |
| 20260901134557 | 25 | 360 | 6.4 | 22.5 | 0.00 | 0.00 | 0.00 | 81 | 1013.7 |
| 20260901134049 | 25 | 360 | 8.0 | 19.3 | 0.00 | 0.00 | 0.00 | 81 | 1013.7 |
| 20260901133553 | 25 | 273 | 8.0 | 19.3 | 0.00 | 0.00 | 0.00 | 81 | 1013.6 |
| 20260901133039 | 25 | 271 | 11.3 | 19.3 | 0.00 | 0.00 | 0.00 | 81 | 1013.6 |
| 20260901132545 | 25 | 360 | 8.0 | 17.7 | 0.00 | 0.00 | 0.00 | 81 | 1013.7 |
| 20260901132051 | 25 | 246 | 8.0 | 16.1 | 0.00 | 0.00 | 0.00 | 81 | 1013.8 |
| 20260901131600 | 25 | 360 | 8.0 | 17.7 | 0.00 | 0.00 | 0.00 | 81 | 1013.7 |
| 20260901131102 | 25 | 254 | 8.0 | 17.7 | 0.00 | 0.00 | 0.00 | 81 | 1013.6 |
| 20260901130550 | 25 | 240 | 6.4 | 16.1 | 0.00 | 0.00 | 0.00 | 81 | 1013.7 |
| 20260901130108 | 25 | 273 | 6.4 | 16.1 | 0.00 | 0.00 | 0.00 | 81 | 1013.8 |
| 20260901125505 | 25 | 252 | 6.4 | 17.7 | 0.00 | 0.00 | 0.00 | 81 | 1013.7 |
| 20260901125019 | 25 | 360 | 3.2 | 17.7 | 0.00 | 0.00 | 0.00 | 81 | 1013.7 |
| 20260901124524 | 25 | 360 | 4.8 | 14.5 | 0.00 | 0.00 | 0.00 | 80 | 1013.9 |
| 20260901124002 | 25 | 254 | 4.8 | 14.5 | 0.00 | 0.00 | 0.00 | 80 | 1013.9 |
| 20260901123517 | 25 | 360 | 6.4 | 16.1 | 0.00 | 0.00 | 0.00 | 80 | 1013.9 |
| 20260901123057 | 25 | 244 | 8.0 | 16.1 | 0.00 | 0.00 | 0.00 | 80 | 1013.9 |
| 20260901122507 | 25 | 257 | 6.4 | 16.1 | 0.00 | 0.00 | 0.00 | 80 | 1013.9 |
| 20260901122006 | 25 | 360 | 4.8 | 16.1 | 0.00 | 0.00 | 0.00 | 80 | 1013.9 |
| 20260901121557 | 25 | 236 | 4.8 | 14.5 | 0.00 | 0.00 | 0.00 | 79 | 1013.8 |
| 20260901121100 | 25 | 360 | 4.8 | 12.9 | 0.00 | 0.00 | 0.00 | 79 | 1013.7 |
| 20260901120513 | 25 | 240 | 4.8 | 12.9 | 0.00 | 0.00 | 0.00 | 79 | 1013.6 |
| 20260901120007 | 25 | 360 | 4.8 | 14.5 | 0.00 | 0.03 | 0.00 | 79 | 1013.6 |
| 20260901115523 | 25 | 360 | 6.4 | 14.5 | 0.00 | 0.03 | 0.00 | 79 | 1013.5 |
| 20260901115031 | 25 | 245 | 3.2 | 17.7 | 0.00 | 0.03 | 0.00 | 79 | 1013.5 |
| 20260901114539 | 25 | 240 | 4.8 | 17.7 | 0.00 | 0.03 | 0.00 | 79 | 1013.3 |
| 20260901114043 | 25 | 197 | 3.2 | 14.5 | 0.00 | 0.03 | 0.00 | 78 | 1013.3 |
| 20260901113527 | 25 | 244 | 3.2 | 14.5 | 0.00 | 0.03 | 0.00 | 78 | 1013.3 |
| 20260901113030 | 25 | 223 | 6.4 | 19.3 | 0.00 | 0.03 | 0.00 | 78 | 1013.2 |
| 20260901112512 | 25 | 215 | 6.4 | 25.7 | 0.00 | 0.03 | 0.00 | 78 | 1013.2 |
| 20260901112024 | 25 | 360 | 9.7 | 25.7 | 0.00 | 0.03 | 0.00 | 78 | 1013.2 |
| 20260901111530 | 25 | 259 | 4.8 | 14.5 | 0.00 | 0.03 | 0.00 | 78 | 1013.1 |
| 20260901111041 | 25 | 360 | 4.8 | 17.7 | 0.00 | 0.03 | 0.00 | 78 | 1013.2 |
| 20260901110551 | 25 | 360 | 4.8 | 17.7 | 0.00 | 0.03 | 0.00 | 78 | 1013.0 |
| 20260901105600 | 25 | 251 | 4.8 | 16.1 | 0.00 | 0.03 | 0.00 | 77 | 1012.9 |
| 20260901105002 | 25 | 252 | 4.8 | 14.5 | 0.00 | 0.03 | 0.00 | 77 | 1012.9 |
| 20260901104514 | 25 | 200 | 4.8 | 14.5 | 0.00 | 0.03 | 0.00 | 77 | 1012.9 |
| 20260901104027 | 25 | 226 | 4.8 | 17.7 | 0.00 | 0.03 | 0.00 | 77 | 1012.9 |
| 20260901103533 | 25 | 360 | 4.8 | 17.7 | 0.00 | 0.03 | 0.00 | 77 | 1012.7 |
| 20260901103034 | 25 | 360 | 3.2 | 14.5 | 0.00 | 0.03 | 0.00 | 77 | 1012.7 |
| 20260901102517 | 25 | 155 | 3.2 | 14.5 | 0.00 | 0.03 | 0.00 | 76 | 1012.6 |
| 20260901102044 | 25 | 281 | 6.4 | 14.5 | 0.00 | 0.03 | 0.00 | 76 | 1012.6 |
| 20260901101541 | 25 | 360 | 4.8 | 14.5 | 0.00 | 0.03 | 0.00 | 76 | 1012.4 |
| 20260901101030 | 25 | 240 | 4.8 | 19.3 | 0.00 | 0.03 | 0.00 | 76 | 1012.4 |
| 20260901100536 | 25 | 216 | 4.8 | 19.3 | 0.00 | 0.03 | 0.00 | 76 | 1012.4 |
| 20260901100052 | 25 | 220 | 6.4 | 16.1 | 0.00 | 0.08 | 0.00 | 76 | 1012.4 |
| 20260901095550 | 25 | 210 | 6.4 | 16.1 | 0.00 | 0.08 | 0.00 | 75 | 1012.4 |
| 20260901095057 | 25 | 360 | 4.8 | 14.5 | 0.00 | 0.08 | 0.00 | 75 | 1012.4 |
| 20260901094506 | 25 | 197 | 3.2 | 12.9 | 0.00 | 0.08 | 0.00 | 74 | 1012.4 |
| 20260901094056 | 26 | 220 | 4.8 | 14.5 | 0.00 | 0.08 | 0.00 | 74 | 1012.4 |
| 20260901093601 | 26 | 234 | 8.0 | 19.3 | 0.00 | 0.08 | 0.00 | 74 | 1012.4 |
| 20260901093048 | 26 | 360 | 8.0 | 19.3 | 0.00 | 0.08 | 0.00 | 74 | 1012.3 |
| 20260901092554 | 25 | 225 | 6.4 | 17.7 | 0.00 | 0.08 | 0.00 | 74 | 1012.4 |
| 20260901092054 | 25 | 205 | 4.8 | 17.7 | 0.00 | 0.08 | 0.00 | 74 | 1012.4 |
| 20260901091602 | 25 | 360 | 4.8 | 17.7 | 0.00 | 0.08 | 0.00 | 74 | 1012.4 |
| 20260901091502 | 25 | 224 | 6.4 | 17.7 | 0.00 | 0.08 | 0.00 | 74 | 1012.4 |
| 20260901091005 | 25 | 236 | 6.4 | 16.1 | 0.00 | 0.08 | 0.00 | 74 | 1012.4 |
| 20260901090518 | 25 | 360 | 4.8 | 11.3 | 0.00 | 0.08 | 0.00 | 74 | 1012.4 |
| 20260901090022 | 25 | 225 | 3.2 | 12.9 | 0.00 | 0.13 | 0.00 | 74 | 1012.5 |
| 20260901085526 | 25 | 360 | 4.8 | 16.1 | 0.00 | 0.13 | 0.00 | 74 | 1012.5 |
| 20260901085032 | 25 | 194 | 3.2 | 16.1 | 0.00 | 0.13 | 0.00 | 75 | 1012.4 |
| 20260901084544 | 25 | 165 | 4.8 | 11.3 | 0.00 | 0.13 | 0.00 | 75 | 1012.4 |
| 20260901084042 | 25 | 211 | 3.2 | 11.3 | 0.00 | 0.13 | 0.00 | 74 | 1012.3 |
| 20260901083548 | 25 | 256 | 3.2 | 17.7 | 0.00 | 0.13 | 0.00 | 74 | 1012.3 |
| 20260901083036 | 25 | 216 | 3.2 | 16.1 | 0.00 | 0.13 | 0.00 | 74 | 1012.2 |
| 20260901082542 | 25 | 210 | 3.2 | 16.1 | 0.00 | 0.13 | 0.00 | 74 | 1012.3 |
| 20260901082032 | 25 | 194 | 3.2 | 16.1 | 0.00 | 0.13 | 0.00 | 73 | 1012.3 |
| 20260901081540 | 25 | 165 | 6.4 | 22.5 | 0.00 | 0.13 | 0.00 | 73 | 1012.4 |
| 20260901081048 | 25 | 196 | 6.4 | 22.5 | 0.00 | 0.13 | 0.00 | 73 | 1012.5 |
| 20260901080554 | 25 | 173 | 8.0 | 20.9 | 0.00 | 0.13 | 0.00 | 73 | 1012.5 |
| 20260901080045 | 25 | 174 | 6.4 | 20.9 | 0.00 | 0.13 | 0.00 | 72 | 1012.6 |
| 20260901075550 | 25 | 173 | 4.8 | 22.5 | 0.00 | 0.13 | 0.00 | 72 | 1012.5 |
| 20260901075055 | 25 | 175 | 8.0 | 22.5 | 0.00 | 0.13 | 0.00 | 72 | 1012.4 |
| 20260901074509 | 25 | 173 | 6.4 | 22.5 | 0.00 | 0.13 | 0.00 | 72 | 1012.5 |
| 20260901074055 | 25 | 209 | 4.8 | 22.5 | 0.00 | 0.13 | 0.00 | 71 | 1012.5 |
| 20260901073506 | 25 | 161 | 6.4 | 14.5 | 0.00 | 0.13 | 0.00 | 70 | 1012.7 |
| 20260901073020 | 25 | 182 | 6.4 | 22.5 | 0.00 | 0.13 | 0.00 | 70 | 1012.8 |
| 20260901072554 | 25 | 214 | 6.4 | 22.5 | 0.00 | 0.13 | 0.00 | 69 | 1012.8 |
| 20260901072102 | 25 | 180 | 6.4 | 16.1 | 0.00 | 0.13 | 0.00 | 69 | 1012.9 |
| 20260901071548 | 25 | 155 | 6.4 | 16.1 | 0.00 | 0.13 | 0.00 | 69 | 1012.9 |
| 20260901071002 | 25 | 186 | 4.8 | 16.1 | 0.00 | 0.13 | 0.00 | 69 | 1013.1 |
| 20260901070510 | 25 | 151 | 4.8 | 16.1 | 0.00 | 0.13 | 0.00 | 70 | 1013.0 |
| 20260901070100 | 25 | 158 | 4.8 | 22.5 | 0.00 | 0.18 | 0.00 | 71 | 1012.9 |
| 20260901065540 | 25 | 198 | 4.8 | 22.5 | 0.00 | 0.18 | 0.00 | 71 | 1012.8 |
| 20260901065042 | 25 | 200 | 6.4 | 17.7 | 0.00 | 0.18 | 0.00 | 72 | 1012.9 |
| 20260901064548 | 25 | 263 | 3.2 | 17.7 | 0.00 | 0.18 | 0.00 | 73 | 1013.0 |
| 20260901064036 | 25 | 196 | 4.8 | 17.7 | 0.00 | 0.18 | 0.00 | 72 | 1013.1 |
| 20260901063539 | 25 | 193 | 4.8 | 16.1 | 0.00 | 0.18 | 0.00 | 73 | 1013.1 |
| 20260901063030 | 25 | 133 | 4.8 | 17.7 | 0.00 | 0.18 | 0.00 | 73 | 1013.3 |
| 20260901062531 | 25 | 155 | 6.4 | 17.7 | 0.00 | 0.18 | 0.00 | 73 | 1013.5 |
| 20260901062040 | 24 | 214 | 6.4 | 16.1 | 0.00 | 0.18 | 0.00 | 74 | 1013.6 |
| 20260901061546 | 24 | 194 | 4.8 | 16.1 | 0.00 | 0.18 | 0.00 | 75 | 1013.4 |
| 20260901061052 | 24 | 194 | 3.2 | 16.1 | 0.00 | 0.18 | 0.00 | 75 | 1013.4 |
| 20260901060559 | 25 | 169 | 3.2 | 11.3 | 0.00 | 0.18 | 0.00 | 75 | 1013.6 |
| 20260901060504 | 25 | 205 | 3.2 | 12.9 | 0.00 | 0.18 | 0.00 | 75 | 1013.6 |
| 20260901060006 | 25 | 360 | 4.8 | 16.1 | 0.00 | 0.23 | 0.00 | 75 | 1013.6 |
| 20260901055516 | 25 | 182 | 4.8 | 16.1 | 0.00 | 0.23 | 0.00 | 75 | 1013.6 |
| 20260901055059 | 25 | 161 | 6.4 | 14.5 | 0.00 | 0.23 | 0.00 | 75 | 1013.8 |
| 20260901054549 | 25 | 360 | 3.2 | 16.1 | 0.00 | 0.23 | 0.00 | 74 | 1014.0 |
| 20260901054058 | 25 | 178 | 3.2 | 14.5 | 0.00 | 0.23 | 0.00 | 74 | 1014.1 |
| 20260901053511 | 25 | 171 | 4.8 | 17.7 | 0.00 | 0.23 | 0.00 | 73 | 1014.2 |
| 20260901053009 | 25 | 175 | 4.8 | 17.7 | 0.00 | 0.23 | 0.00 | 74 | 1014.2 |
| 20260901052525 | 25 | 200 | 4.8 | 14.5 | 0.00 | 0.23 | 0.00 | 74 | 1014.2 |
| 20260901052025 | 25 | 189 | 4.8 | 11.3 | 0.00 | 0.23 | 0.00 | 72 | 1014.2 |
| 20260901051527 | 25 | 194 | 3.2 | 11.3 | 0.00 | 0.23 | 0.00 | 72 | 1014.2 |
| 20260901051038 | 25 | 184 | 3.2 | 12.9 | 0.00 | 0.23 | 0.00 | 72 | 1014.3 |
| 20260901050548 | 25 | 178 | 4.8 | 12.9 | 0.00 | 0.23 | 0.00 | 71 | 1014.5 |
| 20260901045503 | 25 | 205 | 1.6 | 19.3 | 0.00 | 0.38 | 0.00 | 71 | 1014.7 |
| 20260901045056 | 25 | 194 | 4.8 | 19.3 | 0.00 | 0.38 | 0.00 | 70 | 1014.6 |
| 20260901044613 | 25 | 170 | 4.8 | 16.1 | 0.00 | 0.38 | 0.00 | 71 | 1014.6 |
| 20260901044028 | 25 | 192 | 3.2 | 11.3 | 0.00 | 0.38 | 0.00 | 71 | 1014.5 |
| 20260901043535 | 25 | 192 | 3.2 | 12.9 | 0.00 | 0.38 | 0.00 | 71 | 1014.4 |
| 20260901043048 | 25 | 194 | 3.2 | 12.9 | 0.00 | 0.38 | 0.00 | 71 | 1014.3 |
| 20260901042553 | 25 | 205 | 1.6 | 6.4 | 0.00 | 0.38 | 0.00 | 71 | 1014.4 |
| 20260901042037 | 24 | 213 | 1.6 | 9.7 | 0.00 | 0.38 | 0.00 | 71 | 1014.3 |
| 20260901041541 | 24 | 185 | 1.6 | 8.0 | 0.00 | 0.38 | 0.00 | 71 | 1014.4 |
| 20260901041050 | 24 | 185 | 3.2 | 8.0 | 0.00 | 0.38 | 0.00 | 71 | 1014.4 |
| 20260901040535 | 24 | 360 | 3.2 | 8.0 | 0.00 | 0.38 | 0.00 | 71 | 1014.5 |
| 20260901040041 | 24 | 194 | 1.6 | 6.4 | 0.00 | 0.53 | 0.38 | 71 | 1014.6 |
| 20260901035513 | 24 | 184 | 1.6 | 6.4 | 0.00 | 0.53 | 0.38 | 72 | 1014.6 |
| 20260901035108 | 24 | 200 | 1.6 | 6.4 | 0.00 | 0.53 | 0.38 | 72 | 1014.6 |
| 20260901034600 | 24 | 195 | 1.6 | 6.4 | 0.00 | 0.53 | 0.38 | 72 | 1014.6 |
| 20260901034040 | 24 | 191 | 1.6 | 6.4 | 0.00 | 0.53 | 0.38 | 72 | 1014.6 |
| 20260901033552 | 24 | 196 | 1.6 | 6.4 | 0.00 | 0.53 | 0.38 | 72 | 1014.6 |
| 20260901033102 | 24 | 202 | 1.6 | 6.4 | 0.00 | 0.53 | 0.38 | 72 | 1014.6 |
| 20260901032504 | 24 | 186 | 1.6 | 8.0 | 0.00 | 0.53 | 0.38 | 72 | 1014.5 |
| 20260901032101 | 24 | 187 | 1.6 | 8.0 | 0.00 | 0.53 | 0.38 | 72 | 1014.6 |
| 20260901031559 | 24 | 225 | 1.6 | 9.7 | 0.00 | 0.53 | 0.38 | 73 | 1014.6 |
| 20260901031100 | 24 | 183 | 4.8 | 9.7 | 0.00 | 0.53 | 0.38 | 73 | 1014.7 |
| 20260901030508 | 24 | 179 | 1.6 | 6.4 | 0.00 | 0.53 | 0.38 | 73 | 1014.6 |
| 20260901030038 | 24 | 179 | 1.6 | 6.4 | 0.00 | 0.53 | 0.38 | 74 | 1014.7 |
| 20260901025547 | 24 | 205 | 1.6 | 6.4 | 0.00 | 0.53 | 0.38 | 73 | 1014.6 |
| 20260901025022 | 24 | 197 | 1.6 | 6.4 | 0.00 | 0.53 | 0.38 | 73 | 1014.7 |
| 20260901024512 | 24 | 196 | 1.6 | 9.7 | 0.00 | 0.53 | 0.38 | 73 | 1014.7 |
| 20260901024022 | 24 | 360 | 3.2 | 9.7 | 0.00 | 0.53 | 0.38 | 73 | 1014.7 |
| 20260901023531 | 24 | 192 | 1.6 | 4.8 | 0.00 | 0.53 | 0.38 | 74 | 1014.7 |
| 20260901023040 | 24 | 194 | 1.6 | 4.8 | 0.00 | 0.53 | 0.38 | 74 | 1014.7 |
| 20260901022542 | 24 | 194 | 1.6 | 8.0 | 0.00 | 0.53 | 0.38 | 75 | 1014.9 |
| 20260901022036 | 23 | 195 | 1.6 | 8.0 | 0.00 | 0.53 | 0.38 | 77 | 1014.8 |
| 20260901021602 | 23 | 195 | 1.6 | 8.0 | 0.00 | 0.53 | 0.38 | 78 | 1014.8 |
| 20260901021030 | 23 | 178 | 3.2 | 8.0 | 0.00 | 0.53 | 0.38 | 79 | 1014.9 |
| 20260901020540 | 23 | 161 | 3.2 | 8.0 | 0.00 | 0.53 | 0.38 | 80 | 1014.9 |
| 20260901020110 | 23 | 244 | 3.2 | 6.4 | 0.00 | 0.56 | 0.38 | 82 | 1014.9 |
| 20260901015505 | 23 | 209 | 0.0 | 6.4 | 0.00 | 0.56 | 0.38 | 86 | 1014.9 |
| 20260901015056 | 22 | 209 | 1.6 | 6.4 | 0.00 | 0.56 | 0.38 | 87 | 1015.0 |
| 20260901014506 | 22 | 277 | 0.0 | 0.0 | 0.00 | 0.56 | 0.38 | 87 | 1015.1 |
| 20260901014048 | 22 | 276 | 0.0 | 0.0 | 0.00 | 0.56 | 0.38 | 87 | 1015.1 |
| 20260901013554 | 23 | 279 | 0.0 | 0.0 | 0.00 | 0.56 | 0.38 | 87 | 1015.2 |
| 20260901013105 | 23 | 281 | 0.0 | 0.0 | 0.00 | 0.56 | 0.38 | 87 | 1015.3 |
| 20260901012603 | 23 | 281 | 0.0 | 3.2 | 0.00 | 0.56 | 0.38 | 87 | 1015.3 |
| 20260901012502 | 23 | 281 | 0.0 | 3.2 | 0.00 | 0.56 | 0.38 | 86 | 1015.3 |
| 20260901012001 | 23 | 281 | 0.0 | 3.2 | 0.00 | 0.56 | 0.38 | 86 | 1015.4 |
| 20260901011512 | 23 | 281 | 0.0 | 3.2 | 0.00 | 0.56 | 0.38 | 86 | 1015.3 |
| 20260901011022 | 23 | 229 | 0.0 | 3.2 | 0.00 | 0.56 | 0.38 | 86 | 1015.3 |
| 20260901010529 | 23 | 229 | 0.0 | 4.8 | 0.00 | 0.56 | 0.38 | 86 | 1015.4 |
| 20260901010044 | 23 | 228 | 1.6 | 4.8 | 0.00 | 0.58 | 0.38 | 86 | 1015.4 |
| 20260901005548 | 23 | 229 | 0.0 | 3.2 | 0.00 | 0.58 | 0.38 | 86 | 1015.4 |
| 20260901005051 | 23 | 229 | 0.0 | 3.2 | 0.00 | 0.58 | 0.38 | 85 | 1015.4 |
| 20260901004557 | 23 | 229 | 0.0 | 3.2 | 0.00 | 0.58 | 0.38 | 86 | 1015.3 |
| 20260901004004 | 23 | 229 | 0.0 | 3.2 | 0.00 | 0.58 | 0.38 | 85 | 1015.4 |
| 20260901003519 | 23 | 228 | 0.0 | 1.6 | 0.00 | 0.58 | 0.38 | 85 | 1015.4 |
| 20260901003022 | 23 | 228 | 0.0 | 1.6 | 0.00 | 0.58 | 0.38 | 84 | 1015.3 |
| 20260901002516 | 23 | 228 | 0.0 | 4.8 | 0.00 | 0.58 | 0.38 | 84 | 1015.2 |
| 20260901002022 | 23 | 228 | 0.0 | 4.8 | 0.00 | 0.58 | 0.38 | 83 | 1015.2 |
| 20260901001534 | 23 | 228 | 1.6 | 4.8 | 0.00 | 0.58 | 0.38 | 83 | 1015.1 |
| 20260901001044 | 23 | 227 | 1.6 | 6.4 | 0.00 | 0.58 | 0.38 | 83 | 1015.1 |
| 20260901000551 | 23 | 215 | 0.0 | 3.2 | 0.00 | 0.58 | 0.38 | 83 | 1015.1 |
| 20260901000002 | 23 | 213 | 0.0 | 8.0 | 0.00 | 0.58 | 0.38 | 83 | 1014.9 |
| 20260831235513 | 23 | 214 | 1.6 | 8.0 | 0.00 | 0.58 | 0.38 | 83 | 1014.8 |
| 20260831235053 | 23 | 304 | 0.0 | 6.4 | 0.00 | 0.58 | 0.38 | 83 | 1014.8 |
| 20260831234555 | 24 | 254 | 0.0 | 6.4 | 0.00 | 0.58 | 0.38 | 83 | 1014.7 |
| 20260831234029 | 24 | 255 | 0.0 | 3.2 | 0.00 | 0.58 | 0.38 | 83 | 1014.8 |
| 20260831233535 | 24 | 256 | 0.0 | 3.2 | 0.00 | 0.58 | 0.38 | 82 | 1014.7 |
| 20260831233044 | 25 | 256 | 0.0 | 1.6 | 0.00 | 0.58 | 0.38 | 82 | 1014.8 |
| 20260831232539 | 25 | 256 | 0.0 | 1.6 | 0.00 | 0.58 | 0.38 | 82 | 1014.9 |
| 20260831232034 | 25 | 256 | 0.0 | 3.2 | 0.00 | 0.58 | 0.38 | 82 | 1015.0 |
| 20260831231536 | 25 | 256 | 0.0 | 3.2 | 0.00 | 0.58 | 0.38 | 81 | 1015.0 |
| 20260831231022 | 25 | 256 | 0.0 | 3.2 | 0.00 | 0.58 | 0.38 | 82 | 1015.0 |
| 20260831230526 | 25 | 256 | 0.0 | 3.2 | 0.00 | 0.58 | 0.38 | 82 | 1015.0 |
| 20260831230030 | 25 | 256 | 0.0 | 3.2 | 0.00 | 0.58 | 0.38 | 82 | 1015.2 |
| 20260831225535 | 25 | 256 | 0.0 | 4.8 | 0.00 | 0.58 | 0.38 | 83 | 1015.4 |
| 20260831225045 | 25 | 255 | 1.6 | 6.4 | 0.00 | 0.58 | 0.38 | 83 | 1015.4 |
| 20260831224552 | 25 | 254 | 1.6 | 6.4 | 0.00 | 0.58 | 0.38 | 84 | 1015.7 |
| 20260831224035 | 25 | 254 | 1.6 | 4.8 | 0.00 | 0.58 | 0.38 | 84 | 1015.8 |
| 20260831223537 | 25 | 254 | 1.6 | 4.8 | 0.00 | 0.58 | 0.38 | 84 | 1015.9 |
| 20260831223044 | 25 | 254 | 0.0 | 0.0 | 0.00 | 0.58 | 0.38 | 85 | 1015.8 |
| 20260831222533 | 25 | 256 | 0.0 | 0.0 | 0.00 | 0.58 | 0.38 | 85 | 1015.7 |
| 20260831222009 | 25 | 256 | 0.0 | 0.0 | 0.00 | 0.58 | 0.38 | 84 | 1015.6 |
| 20260831221602 | 25 | 256 | 0.0 | 0.0 | 0.00 | 0.58 | 0.38 | 85 | 1015.5 |
| 20260831221501 | 25 | 256 | 0.0 | 0.0 | 0.00 | 0.58 | 0.38 | 85 | 1015.6 |
| 20260831221059 | 24 | 256 | 0.0 | 0.0 | 0.00 | 0.58 | 0.38 | 85 | 1015.6 |
| 20260831220507 | 25 | 256 | 0.0 | 0.0 | 0.00 | 0.58 | 0.38 | 85 | 1015.5 |
| 20260831220022 | 24 | 256 | 0.0 | 0.0 | 0.00 | 0.64 | 0.38 | 85 | 1015.6 |
| 20260831215522 | 24 | 256 | 0.0 | 0.0 | 0.00 | 0.64 | 0.38 | 85 | 1015.6 |
| 20260831215035 | 24 | 256 | 0.0 | 0.0 | 0.00 | 0.64 | 0.38 | 85 | 1015.7 |
| 20260831214535 | 24 | 256 | 0.0 | 0.0 | 0.00 | 0.64 | 0.38 | 85 | 1015.7 |
| 20260831214046 | 24 | 256 | 0.0 | 0.0 | 0.00 | 0.64 | 0.38 | 85 | 1015.7 |
| 20260831213553 | 24 | 256 | 0.0 | 0.0 | 0.00 | 0.64 | 0.38 | 85 | 1015.8 |
| 20260831213056 | 24 | 256 | 0.0 | 0.0 | 0.00 | 0.64 | 0.38 | 85 | 1015.8 |
| 20260831212504 | 24 | 256 | 0.0 | 0.0 | 0.00 | 0.64 | 0.38 | 86 | 1015.7 |